Content
SEND FEEDBACK

Daily
Averages
Monthly
Summary
Philippines

QUEZON CITY, PHILIPPINES


Home > Asia > Philippines
Elevation: 46 meters     Latitude: 14 39N     Longitude: 121 03E

WEATHER
 
SELECT A DAY
Number of Records: 178,098;   Date Range: 7/1/96 - 11/24/14
 
SHARE

PRINT THIS DATA

[ ← Previous Day ]
WEATHER ALMANAC - 24 APRIL, 2013
[ Next Day → ]
[ °F ]   °C
Weather ElementAverageHighLow
Temperature31.5 °C36.1 °C (2:00 pm)26.7 °C (5:00 am)
Dewpoint22.1 °C25 °C (11:00 pm)19.4 °C (2:00 pm)
Humidity56.6 %79 % (5:00 am)29 % (2:00 pm)
Barometer1011.2 hPa1013.9 hPa (8:00 am)1008.1 hPa (3:00 pm)
Wind Speed9.7 km/h14.8 km/h (4:00 pm)
Weather ElementAverage
Visibility9.8 km
Wind DirectionESE (123.5 °)

Weather ElementTotal
Precipitation---
Cooling Degree Days13.1 (Base 18.3)
Growing Degree Days21.4 (Base 10)
Averaged from 31 records on 24 April, 2013
WEATHER CONDITIONS BREAKOUT
WIND DIRECTION BREAKOUT
WEATHER BY HOUR - 24 APRIL, 2013
[ °F ]   °C
Local TimeTemperatureDewpointHumidityBarometerVisibilityWind DirectionWind SpeedGust SpeedPrecipitationEventsConditions
1:00 AM29 °C22 °C66 %1012.2 hPa10 kmSE (130°)13 km/hPartly Cloudy
2:00 AM28.9 °C22.2 °C60 %1011.9 hPa9.7 kmESE (120°)10.8 km/hScattered Clouds
2:00 AM29 °C22 °C66 %1011.2 hPa10 kmESE (120°)11.1 km/hPartly Cloudy
3:00 AM29 °C22 °C66 %1011.2 hPa10 kmESE (120°)9.3 km/hPartly Cloudy
4:00 AM28 °C23 °C74 %1011.2 hPa10 kmESE (120°)9.3 km/hPartly Cloudy
5:00 AM26.7 °C22.8 °C74 %1011.5 hPa9.7 kmENE (70°)7.2 km/hScattered Clouds
5:00 AM27 °C23 °C79 %1011.2 hPa10 kmENE (70°)9.3 km/hPartly Cloudy
6:00 AM27 °C22 °C74 %1012.2 hPa10 kmCalmPartly Cloudy
7:00 AM27 °C22 °C74 %1013.2 hPa10 kmNNE (30°)11.1 km/hPartly Cloudy
8:00 AM30.6 °C22.2 °C51 %1013.9 hPa9.7 kmNorth (350°)3.5 km/hScattered Clouds
8:00 AM31 °C22 °C58 %1013.2 hPa10 kmNorth (350°)3.7 km/hPartly Cloudy
9:00 AM31 °C23 °C62 %1013.2 hPa10 kmWNW (290°)13 km/hPartly Cloudy
10:00 AM32 °C23 °C59 %1013.2 hPa10 kmWest (280°)9.3 km/hPartly Cloudy
11:00 AM33.3 °C21.7 °C40 %1013.2 hPa9.7 kmSSW (200°)7.2 km/hScattered Clouds
11:00 AM33 °C22 °C52 %1013.2 hPa10 kmVariable9.3 km/hPartly Cloudy
12:00 PM34 °C21 °C46 %1012.2 hPa10 kmESE (110°)13 km/hScattered Clouds
1:00 PM36 °C21 °C41 %1010.2 hPa10 kmVariable13 km/hScattered Clouds
2:00 PM36.1 °C19.4 °C29 %1010.2 hPa9.7 kmSE (140°)10.8 km/hScattered Clouds
2:00 PM36 °C21 °C41 %1009.1 hPa10 kmSE (130°)11.1 km/hPartly Cloudy
3:00 PM36 °C22 °C44 %1008.1 hPa10 kmVariable13 km/hPartly Cloudy
4:00 PM35 °C22 °C47 %1008.1 hPa10 kmESE (120°)14.8 km/hPartly Cloudy
5:00 PM35 °C21.1 °C34 %1008.5 hPa9.7 kmSE (140°)10.8 km/hScattered Clouds
5:00 PM35 °C21 °C44 %1008.1 hPa10 kmSE (140°)13 km/hPartly Cloudy
6:00 PM34 °C21 °C46 %1009.1 hPa10 kmSE (130°)11.1 km/hPartly Cloudy
7:00 PM32 °C21 °C52 %1010.2 hPa10 kmVariable9.3 km/hPartly Cloudy
8:00 PM31.7 °C22.2 °C48 %1010.8 hPa9.7 kmSE (130°)7.2 km/hScattered Clouds
8:00 PM32 °C22 °C55 %1010.2 hPa10 kmSE (130°)3.7 km/hPartly Cloudy
9:00 PM31 °C22 °C58 %1011.2 hPa10 kmSE (140°)7.4 km/hPartly Cloudy
10:00 PM30 °C24 °C70 %1012.2 hPa10 kmSE (140°)9.3 km/hPartly Cloudy
11:00 PM29.4 °C25 °C70 %1012.5 hPa9.7 kmSE (130°)10.8 km/hScattered Clouds
11:00 PM30 °C25 °C74 %1012.2 hPa10 kmVariable11.1 km/hPartly Cloudy
Hourly data recorded from RPLL, located 0 kilometers away from Quezon City, Philippines







STORIES FROM OUR PARTNERS